[[{"header":{"parameterUnit":"m.s-1","parameterCategory":1,"la1":30.2991,"la2":30.254,"lo1":-89.0895,"lo2":-89.0444,"dy":0.0017,"dx":0.0017,"nx":28,"ny":28,"refTime":"2023-07-23T09:00:00:Z","depth":0,"parameterNumber":2,"parameterNumberName":"U-component_of_WINDS"},"data":[0,0,0,0,0,0,0,0,0,0,0,0,0,0,0,0,0,0,0,0,0,0,0,0,0,0,0,0,0,0,0,0,0,0,0,0,0,0,0,0,0,0,0,0,0,0,0,0,0,0,0,0,0,0,0,0,0,0,0.3158,0.3159,0,0.3201,0.3201,0.3202,0.3208,0.3207,0.3207,0.3206,0.3249,0.3251,0.3252,0,0,0,0,0,0,0,0,0,0,0,0,0,0.3081,0.3082,0.3158,0.3159,0.3159,0.3201,0.3201,0.3202,0.3208,0.3207,0.3207,0.3206,0.3249,0.3251,0.3252,0,0,0,0,0,0,0,0,0,0,0,0,0,0.3118,0.3083,0.3158,0.3167,0.3168,0.3201,0.3201,0.3202,0.3208,0.3207,0.3207,0.3206,0.3248,0.325,0.3253,0.3279,0,0,0.326,0.3261,0,0,0,0,0,0,0,0,0.3116,0.3121,0.3165,0.3167,0.3168,0.3198,0.319,0.3228,0.3208,0.3193,0.3206,0.3206,0.3233,0.3236,0.3246,0.3281,0.3283,0.326,0.3261,0.3262,0.3263,0,0,0,0,0,0,0,0.3113,0.3119,0.3175,0.3166,0.3168,0.3169,0.3173,0.3197,0.3216,0.3194,0.3195,0.32,0.3233,0.3243,0.3247,0.3283,0.326,0.3262,0.3263,0.3264,0.334,0.3341,0,0,0,0,0,0,0.3109,0.3117,0.3174,0.3176,0.314,0.3171,0.3176,0.3189,0.3215,0.3219,0.32,0.32,0.324,0.3244,0.3248,0.3279,0.3262,0.3264,0.3266,0.334,0.3341,0.3341,0,0,0,0,0,0,0.3107,0.3114,0.3172,0.3147,0.3154,0.3173,0.3188,0.319,0.32,0.322,0.3223,0.3207,0.324,0.3245,0.3271,0.3281,0.3265,0.3267,0.3339,0.334,0.3341,0.3342,0,0,0,0,0,0,0.3105,0.3114,0.3124,0.3147,0.3156,0.3194,0.3188,0.3192,0.3204,0.3204,0.3227,0.323,0.3239,0.3267,0.3273,0.3284,0.3269,0.3338,0.3339,0.3341,0.3341,0.3343,0.3345,0,0,0,0,0,0.3102,0.3123,0.3124,0.3131,0.3169,0.3195,0.32,0.321,0.3205,0.3215,0.3228,0.323,0.3279,0.327,0.3276,0.3288,0.3338,0.3339,0.3341,0.3341,0.3343,0.3345,0,0,0,0,0,0,0.31,0.3126,0.3128,0.3156,0.3173,0.3196,0.3209,0.3212,0.3231,0.323,0.3242,0.3247,0.3272,0.3283,0.3272,0.3314,0.3308,0.3311,0.3306,0.3308,0.331,0.3306,0.3271,0,0,0,0,0,0.3103,0.3122,0.3144,0.3167,0.3175,0.319,0.3202,0.3209,0.3227,0.3234,0.3248,0.3265,0.3285,0.3297,0.3316,0.3343,0.3348,0.3354,0.3356,0.3357,0.3359,0.3373,0.3376,0.3346,0.3346,0.3346,0,0,0.3109,0.3125,0.3137,0.3166,0.318,0.3199,0.3196,0.3217,0.3231,0.3237,0.3262,0.3273,0.3293,0.3319,0.3332,0.3329,0.3369,0.3359,0.336,0.3361,0.3375,0.3378,0.3381,0.3347,0.3347,0.3347,0,0,0.3129,0.3144,0.3164,0.3178,0.3199,0.321,0.3214,0.3236,0.3244,0.3269,0.3274,0.329,0.3324,0.3337,0.3349,0.3374,0.3376,0.338,0.3388,0.3402,0.3404,0.3406,0.3414,0.3417,0.3382,0.3382,0.3382,0,0.3134,0.3163,0.3174,0.3194,0.3207,0.3213,0.3233,0.3246,0.3272,0.328,0.3277,0.3319,0.3333,0.3362,0.3368,0.3377,0.3382,0.3377,0.3403,0.3405,0.3407,0.3415,0.3418,0.3382,0.3382,0.3382,0.3382,0,0.3167,0.3187,0.3201,0.3226,0.324,0.326,0.3274,0.3287,0.3292,0.3302,0.3327,0.3344,0.3366,0.3374,0.3379,0.3404,0.3401,0.34,0.3394,0.341,0.3417,0.342,0.3382,0.3382,0.3382,0.3382,0,0,0.3187,0.3217,0.3222,0.3233,0.3257,0.3272,0.3292,0.3314,0.3324,0.3342,0.3358,0.3386,0.3386,0.3398,0.3405,0.3418,0.3435,0.3415,0.3416,0.3417,0.3461,0.3461,0.3464,0.3437,0.3437,0.3438,0.3459,0,0.3209,0.3245,0.3255,0.3285,0.3303,0.331,0.3327,0.3343,0.3353,0.337,0.3381,0.34,0.3398,0.3406,0.3418,0.343,0.3444,0.3429,0.3451,0.3452,0.3445,0.3468,0.3468,0.3488,0.3462,0.3463,0.3463,0,0.324,0.3258,0.329,0.331,0.3318,0.3333,0.3353,0.337,0.3388,0.3394,0.3408,0.3414,0.3434,0.3428,0.3456,0.3446,0.3456,0.3463,0.3464,0.3466,0.3458,0.347,0.3494,0.3497,0.3468,0.3468,0.3467,0,0.3249,0.3282,0.3305,0.3314,0.3339,0.3349,0.336,0.3378,0.339,0.3407,0.3415,0.3435,0.3445,0.3461,0.3471,0.3466,0.3498,0.3493,0.3503,0.3503,0.3509,0.3508,0.3535,0.3517,0.3517,0.3517,0.3517,0,0.3272,0.3291,0.3309,0.3323,0.3344,0.3356,0.3376,0.3387,0.3403,0.3419,0.3426,0.344,0.3454,0.347,0.3479,0.35,0.3506,0.3511,0.3513,0.351,0.3509,0.3515,0.3514,0.3518,0.3518,0.3518,0.3517,0,0.3286,0.3299,0.3324,0.3346,0.3351,0.3366,0.3384,0.3397,0.3408,0.3428,0.3433,0.3449,0.3469,0.3481,0.3507,0.3512,0.3535,0.3537,0.3529,0.353,0.3539,0.3538,0.357,0.3574,0.3555,0.3555,0.3555,0,0.33,0.3314,0.3337,0.3348,0.3359,0.3377,0.3389,0.3401,0.3413,0.3435,0.3445,0.3465,0.3482,0.3513,0.3527,0.3546,0.3548,0.3558,0.3551,0.3547,0.3547,0.3545,0.3546,0.3558,0.3559,0.3559,0.3559,0,0.3321,0.3327,0.3344,0.3364,0.3378,0.3394,0.341,0.3419,0.3433,0.3447,0.3467,0.348,0.3505,0.3525,0.3545,0.3556,0.3559,0.3561,0.3564,0.3561,0.3555,0.3557,0.3531,0.356,0.356,0.356,0.356,0.356,0.3335,0.3347,0.3365,0.3384,0.3397,0.3412,0.3425,0.3437,0.3454,0.3476,0.3482,0.3503,0.352,0.3547,0.3559,0.3575,0.3573,0.3578,0.3579,0.358,0.358,0.3553,0.3579,0.3579,0.3579,0.3579,0.3579,0,0.3356,0.3367,0.3385,0.3406,0.3421,0.3424,0.3442,0.3454,0.3472,0.3487,0.3504,0.3526,0.3545,0.3561,0.358,0.359,0.3592,0.3594,0.3593,0.3596,0.358,0.3575,0.3592,0.3592,0.3592,0.3592,0.3592,0.3592,0.3368,0.339,0.3397,0.3425,0.3437,0.3457,0.3467,0.348,0.3493,0.3518,0.3533,0.3543,0.3559,0.3579,0.3597,0.3601,0.3607,0.3609,0.3613,0.3598,0.3597,0.3595,0.359,0.361,0.361,0.3627,0.3627,0.3627]},{"header":{"parameterUnit":"m.s-1","parameterCategory":1,"la1":30.2991,"la2":30.254,"lo1":-89.0895,"lo2":-89.0444,"dy":0.0017,"dx":0.0017,"nx":28,"ny":28,"refTime":"2023-07-23T09:00:00:Z","depth":0,"parameterNumber":3,"parameterNumberName":"V-component_of_WINDS"},"data":[0,0,0,0,0,0,0,0,0,0,0,0,0,0,0,0,0,0,0,0,0,0,0,0,0,0,0,0,0,0,0,0,0,0,0,0,0,0,0,0,0,0,0,0,0,0,0,0,0,0,0,0,0,0,0,0,0,0,-0.5837,-0.5836,0,-0.5802,-0.5802,-0.5801,-0.5805,-0.5805,-0.5806,-0.5806,-0.5769,-0.5768,-0.5766,0,0,0,0,0,0,0,0,0,0,0,0,0,-0.5905,-0.5904,-0.5837,-0.5836,-0.5836,-0.5802,-0.5802,-0.5801,-0.5805,-0.5805,-0.5806,-0.5807,-0.577,-0.5768,-0.5766,0,0,0,0,0,0,0,0,0,0,0,0,0,-0.5874,-0.5904,-0.5837,-0.5834,-0.5833,-0.5802,-0.5802,-0.5801,-0.5804,-0.5805,-0.5806,-0.5807,-0.577,-0.5768,-0.5766,-0.5736,0,0,-0.5759,-0.5758,0,0,0,0,0,0,0,0,-0.5875,-0.5871,-0.5834,-0.5834,-0.5833,-0.5809,-0.5812,-0.5779,-0.5804,-0.5815,-0.5806,-0.5807,-0.5782,-0.5779,-0.577,-0.5734,-0.5733,-0.5759,-0.5758,-0.5757,-0.5756,0,0,0,0,0,0,0,-0.5878,-0.5873,-0.5823,-0.5834,-0.5833,-0.5834,-0.583,-0.5806,-0.5794,-0.5814,-0.5814,-0.581,-0.5781,-0.5772,-0.5769,-0.5732,-0.5759,-0.5757,-0.5756,-0.5755,-0.567,-0.567,0,0,0,0,0,0,-0.5881,-0.5874,-0.5824,-0.5822,-0.5857,-0.5832,-0.5828,-0.5816,-0.5794,-0.5792,-0.581,-0.5811,-0.5776,-0.5772,-0.5768,-0.5731,-0.5757,-0.5755,-0.5753,-0.5671,-0.567,-0.5669,0,0,0,0,0,0,-0.5882,-0.5876,-0.5825,-0.5848,-0.5842,-0.583,-0.5816,-0.5814,-0.5805,-0.5791,-0.5789,-0.5803,-0.5776,-0.5771,-0.5744,-0.573,-0.5754,-0.5752,-0.5672,-0.5671,-0.567,-0.5658,0,0,0,0,0,0,-0.5884,-0.5877,-0.5865,-0.5848,-0.5841,-0.5802,-0.5815,-0.5813,-0.5802,-0.5803,-0.5784,-0.5782,-0.5777,-0.5747,-0.5742,-0.5728,-0.575,-0.5673,-0.5672,-0.567,-0.5659,-0.5656,-0.5654,0,0,0,0,0,-0.5887,-0.5863,-0.5864,-0.5858,-0.5826,-0.5801,-0.5797,-0.5792,-0.5801,-0.5789,-0.578,-0.5782,-0.5733,-0.5745,-0.5738,-0.5723,-0.5674,-0.5672,-0.567,-0.5661,-0.5657,-0.5654,0,0,0,0,0,0,-0.5877,-0.586,-0.5862,-0.5832,-0.5818,-0.5802,-0.5787,-0.5788,-0.5771,-0.5773,-0.5767,-0.5763,-0.5736,-0.5727,-0.574,-0.5693,-0.5705,-0.5701,-0.57,-0.5696,-0.5693,-0.5695,-0.5748,0,0,0,0,0,-0.5872,-0.5854,-0.584,-0.5814,-0.5808,-0.5798,-0.5787,-0.5785,-0.577,-0.5764,-0.5753,-0.5739,-0.572,-0.5708,-0.569,-0.5659,-0.5655,-0.5646,-0.5643,-0.564,-0.5637,-0.562,-0.5616,-0.5663,-0.5663,-0.5663,0,0,-0.586,-0.5849,-0.5837,-0.5812,-0.5801,-0.5782,-0.5793,-0.5773,-0.5759,-0.5761,-0.5735,-0.5727,-0.571,-0.5681,-0.5668,-0.5673,-0.5624,-0.5638,-0.5636,-0.5634,-0.5618,-0.5614,-0.561,-0.5661,-0.5661,-0.5662,0,0,-0.5829,-0.5819,-0.5797,-0.5786,-0.577,-0.5764,-0.5759,-0.5743,-0.5738,-0.5712,-0.5713,-0.5697,-0.5665,-0.5653,-0.5643,-0.5609,-0.5611,-0.5604,-0.5588,-0.5572,-0.5568,-0.5565,-0.5552,-0.5548,-0.5601,-0.5601,-0.5601,0,-0.5816,-0.5788,-0.5785,-0.5764,-0.5753,-0.5756,-0.5734,-0.5724,-0.5702,-0.5694,-0.5701,-0.5662,-0.5651,-0.5619,-0.5611,-0.5603,-0.5597,-0.5605,-0.5569,-0.5566,-0.5562,-0.5551,-0.5546,-0.56,-0.56,-0.56,-0.56,0,-0.5773,-0.5754,-0.5738,-0.5718,-0.5705,-0.5684,-0.5678,-0.5666,-0.5665,-0.5659,-0.5633,-0.562,-0.56,-0.5592,-0.5591,-0.5561,-0.5565,-0.557,-0.5581,-0.5557,-0.5546,-0.5542,-0.5599,-0.5599,-0.5599,-0.5599,0,0,-0.5733,-0.5713,-0.5707,-0.5699,-0.5682,-0.5667,-0.5646,-0.5627,-0.5617,-0.5602,-0.5584,-0.5558,-0.5564,-0.5552,-0.555,-0.5536,-0.551,-0.5543,-0.5543,-0.5537,-0.5476,-0.5471,-0.5466,-0.5512,-0.5511,-0.5511,-0.5477,0,-0.5699,-0.5663,-0.5661,-0.5627,-0.561,-0.5613,-0.5595,-0.5583,-0.5577,-0.5561,-0.5555,-0.5536,-0.5545,-0.5538,-0.5524,-0.5516,-0.5498,-0.5519,-0.5495,-0.5494,-0.5498,-0.5461,-0.5455,-0.5424,-0.5473,-0.5472,-0.5472,0,-0.5655,-0.564,-0.5606,-0.5593,-0.5585,-0.5569,-0.5552,-0.5537,-0.5523,-0.552,-0.5508,-0.5508,-0.5487,-0.5501,-0.5471,-0.5486,-0.5476,-0.5471,-0.547,-0.5466,-0.5481,-0.5455,-0.5415,-0.541,-0.5465,-0.5466,-0.5466,0,-0.5629,-0.56,-0.5576,-0.5569,-0.5553,-0.5542,-0.5534,-0.5522,-0.5511,-0.5496,-0.5489,-0.5472,-0.5462,-0.5449,-0.5445,-0.5455,-0.5416,-0.5428,-0.5412,-0.5412,-0.5402,-0.5403,-0.5359,-0.5398,-0.5398,-0.5398,-0.5398,0,-0.5591,-0.557,-0.5564,-0.5549,-0.5526,-0.5523,-0.55,-0.5494,-0.5483,-0.5466,-0.5469,-0.5453,-0.5449,-0.5433,-0.543,-0.5406,-0.5402,-0.5398,-0.5397,-0.5398,-0.5398,-0.539,-0.5392,-0.5397,-0.5397,-0.5397,-0.5398,0,-0.5557,-0.5552,-0.5526,-0.5514,-0.5511,-0.5494,-0.5483,-0.5469,-0.5464,-0.5444,-0.5439,-0.5431,-0.5413,-0.5407,-0.5385,-0.5383,-0.5355,-0.5356,-0.5359,-0.5359,-0.5343,-0.5344,-0.5291,-0.5284,-0.5329,-0.5328,-0.5328,0,-0.5532,-0.5516,-0.5503,-0.5492,-0.5485,-0.5468,-0.5458,-0.5456,-0.5444,-0.5429,-0.5416,-0.5398,-0.5383,-0.5354,-0.5346,-0.5329,-0.533,-0.5312,-0.5327,-0.5328,-0.5329,-0.5329,-0.5328,-0.5309,-0.5309,-0.5308,-0.5308,0,-0.5489,-0.5489,-0.5473,-0.5458,-0.5445,-0.5433,-0.5421,-0.5412,-0.5408,-0.5396,-0.5377,-0.5366,-0.5344,-0.5326,-0.5309,-0.5301,-0.5304,-0.5304,-0.5299,-0.5298,-0.53,-0.5299,-0.5351,-0.5305,-0.5305,-0.5305,-0.5305,-0.5305,-0.5459,-0.5445,-0.5434,-0.5417,-0.5408,-0.5397,-0.5383,-0.5378,-0.5362,-0.5344,-0.5344,-0.5324,-0.5312,-0.529,-0.5282,-0.5266,-0.5271,-0.5264,-0.5262,-0.526,-0.5259,-0.5304,-0.5263,-0.5263,-0.5263,-0.5263,-0.5263,0,-0.5416,-0.5409,-0.5394,-0.5378,-0.5365,-0.537,-0.5357,-0.5346,-0.5328,-0.5317,-0.5303,-0.5282,-0.5265,-0.5257,-0.524,-0.5229,-0.523,-0.5225,-0.5225,-0.5223,-0.5255,-0.5261,-0.5225,-0.5225,-0.5225,-0.5225,-0.5225,-0.5225,-0.5392,-0.5368,-0.5366,-0.5339,-0.5333,-0.5313,-0.5306,-0.5296,-0.5287,-0.5264,-0.525,-0.5245,-0.5236,-0.5218,-0.5203,-0.5201,-0.5195,-0.5189,-0.5187,-0.5217,-0.5221,-0.5225,-0.523,-0.5187,-0.5187,-0.5156,-0.5156,-0.5156]}]]